Regional Weather Roundup
Issued by NWS

Home | Current Version | Previous Version | Text Only | Print | Product List | Glossary Off
Versions: 1 2 3 4 5 6 7 8 9 10 11 12 13 14 15 16 17 18 19 20 21 22 23 24 25 26 27 28 29 30 31 32 33 34 35 36 37 38 39 40 41 42 43 44 45 46 47 48 49 50

000
ASUS43 KFSD 031010
RWRSD

WEATHER ROUNDUP FOR SOUTH DAKOTA
NATIONAL WEATHER SERVICE SIOUX FALLS SD
500 AM CDT THU SEP 03 2015

NOTE: "FAIR" INDICATES FEW OR NO CLOUDS BELOW 12,000 FEET WITH NO
SIGNIFICANT WEATHER AND/OR OBSTRUCTIONS TO VISIBILITY.


SDZ001>005-009-010-012>017-031100-
NORTHWEST AND NORTH CENTRAL SOUTH DAKOTA

CITY           SKY/WX    TMP DP  RH WIND       PRES   REMARKS
BUFFALO          N/A     69  49  48 S6        29.66S
MOBRIDGE       CLEAR     69  66  90 SE8       29.67F
$$

SDZ012>016-024>037-041>051-057-063-072>074-031100-
SOUTHWEST AND SOUTH CENTRAL SOUTH DAKOTA

CITY           SKY/WX    TMP DP  RH WIND       PRES   REMARKS
RAPID CTY ARPT CLEAR     61  47  59 SE3       29.78S
PIERRE         CLEAR     68  61  78 CALM      29.71S
CUSTER         PTCLDY    64  36  35 W5        29.98F
ELLSWORTH AFB  CLEAR     66  46  48 S6        29.77S
PHILIP         CLEAR     64  54  69 CALM      29.74S
PINE RIDGE     CLEAR     73  52  47 W8        29.84R
WINNER         FAIR      75  60  59 S13       29.76F
$$

SDZ004>011-016>023-039-040-031100-
NORTHEAST SOUTH DAKOTA

CITY           SKY/WX    TMP DP  RH WIND       PRES   REMARKS
ABERDEEN       CLEAR     72  69  90 SE9       29.74S
WATERTOWN      CLEAR     71  68  90 S8        29.82R
BROOKINGS      CLEAR     70  66  88 SE8       29.84S
SISSETON         N/A     71  71 100 S10       29.79S
$$

SDZ017-020-022-023-036>040-048>070-031100-
SOUTHEAST SOUTH DAKOTA

CITY           SKY/WX    TMP DP  RH WIND       PRES   REMARKS
SIOUX FALLS    CLEAR     67  65  93 E5        29.82F
HURON          CLEAR     71  69  93 SE9       29.75S
CHAMBERLAIN    CLEAR     67  65  92 E5        29.76S
MITCHELL       CLEAR     70  69  97 SE9       29.77F
YANKTON        CLEAR     68  66  94 E7        29.80R
$$

ABBREVIATIONS USED IN REMARKS
   TC - TEMPERATURE IN CELSIUS
  WCI - WIND CHILL INDEX
   HX - HEAT INDEX
  VSB - VISIBILITY




USA.gov is the U.S. government's official web portal to all federal, state and local government web resources and services.